Tracking 32954 objects as of 18-Jan-2026
HD Live streaming from Space Station
objects crossing your sky now

TJS-16

Track TJS-16 now!


NORAD ID: 63397
Int'l Code: 2025-064A
Perigee: 35,772.5 km
Apogee: 35,814.4 km
Inclination: 0.7 °
Period: 1,436.1 minutes
Semi major axis: 42164 km
RCS: Unknown
Launch date: March 29, 2025
Source: People's Republic of China (PRC)
Launch site: Wenchang Satellite Launch Center (WSC)
Your satellite tracking list
Your tracking list is empty




NASA's NSSDC Master Catalog

Two Line Element Set (TLE):
1 63397U 25064A   26017.78877957 -.00000090  00000-0  00000+0 0  9998
2 63397   0.7095  82.0329 0004967 239.6442 240.0540  1.00272696  2887
Source of the keplerian elements: AFSPC